Location: Unspecified
(0.0000°N, 0.0000°E)
Time: 15:59:49
(UTC+01:00)

Ariane H10-3 - Visible Passes

Search period start: 19 January 2017 00:00
Search period end: 29 January 2017 00:00
Orbit: 245 x 20438 km, 7.2° (Epoch: 19 January)

Date Brightness Start Highest point End Pass type
(mag) Time Alt. Az. Time Alt. Az. Time Alt. Az.
19 Jan 9.2 03:38:47 10° W 08:03:21 85° S 08:34:32 10° E visible
19 Jan 6.0 21:01:34 10° W 21:09:15 88° N 23:39:36 10° E visible
20 Jan 9.1 03:32:10 10° W 07:55:41 85° S 08:28:32 10° E visible
20 Jan 5.9 20:55:39 10° W 21:03:02 88° N 23:11:01 10° E visible
21 Jan 9.1 03:25:26 10° W 07:47:41 85° S 08:22:23 10° E visible
21 Jan 5.8 20:49:34 10° W 20:56:41 88° N 22:44:05 10° E visible
22 Jan 9.1 03:18:34 10° W 07:39:19 85° S 08:16:04 10° E visible
22 Jan 5.8 20:43:21 10° W 20:50:12 88° N 22:21:15 10° E visible
23 Jan 9.1 03:11:34 10° W 07:30:32 85° S 08:09:35 10° E visible
23 Jan 5.7 20:36:58 10° W 20:43:35 88° N 22:01:54 10° E visible
24 Jan 9.0 03:04:26 10° W 07:21:19 85° S 08:02:57 10° E visible
24 Jan 5.6 20:30:28 10° W 20:36:48 88° N 21:45:04 10° E visible
25 Jan 9.0 02:57:11 10° W 07:11:36 85° S 07:56:09 10° E visible
25 Jan 5.5 20:23:49 10° W 20:29:54 88° N 21:29:56 10° E visible
26 Jan 9.0 02:49:49 10° W 07:01:19 85° S 07:49:11 10° E visible
26 Jan 5.4 20:17:01 10° W 20:22:51 88° N 21:16:02 10° E visible
27 Jan 8.9 02:42:19 10° W 06:50:22 85° S 07:42:04 10° E visible
27 Jan 5.3 20:10:05 10° W 20:15:41 88° N 21:03:01 10° E visible
28 Jan 8.9 02:34:41 10° W 06:38:39 85° S 07:34:46 10° E visible
28 Jan 5.2 20:03:01 10° W 20:08:22 87° N 20:50:40 10° E visible
